Content
SEND FEEDBACK

Daily
Averages
Monthly
Summary
Portugal

HORTA, PORTUGAL


Home > Europe > Portugal
Elevation: 134 feet     Latitude: 38 31N     Longitude: 028 43W

WEATHER
 
SELECT A DAY
Number of Records: 159,489;   Date Range: 4/1/99 - 7/7/14
 
SHARE

PRINT THIS DATA

[ ← Previous Day ]
WEATHER ALMANAC - JANUARY 19, 2013
[ Next Day → ]
[ °C ]   °F
Weather ElementAverageHighLow
Temperature62.7 °F64.4 °F (11:00 am)59 °F (6:00 am)
Dewpoint57.7 °F61 °F (8:00 pm)51.8 °F (6:00 am)
Humidity83.4 %94 % (8:00 pm)66 % (11:00 am)
Barometer30.10 in30.18 in (11:00 am)30.04 in (9:30 pm)
Wind Speed16.4 mph20.7 mph (9:00 pm)
Weather ElementAverage
Visibility6.7 mi
Wind DirectionWNW (276.7 °)

Weather ElementTotal
Precipitation---
Heating Degree Days3.3 (Base 65)
Growing Degree Days11.7 (Base 50)
Averaged from 42 records on January 19, 2013
WEATHER CONDITIONS BREAKOUT
WIND DIRECTION BREAKOUT
WEATHER BY HOUR - JANUARY 19, 2013
[ °C ]   °F
Local TimeTemperatureDewpointHumidityBarometerVisibilityWind DirectionWind SpeedGust SpeedPrecipitationEventsConditions
6:00 AM59.0 °F51.8 °F77 %30.12 in6.2 miNW (310°)16.1 mphPartly Cloudy
6:30 AM59.0 °F51.8 °F77 %30.15 in6.2 miWNW (300°)16.1 mphPartly Cloudy
7:00 AM59.0 °F51.8 °F77 %30.15 in6.2 miWNW (300°)15.0 mphPartly Cloudy
7:30 AM60.8 °F53.6 °F77 %30.15 in6.2 miWNW (300°)15.0 mphPartly Cloudy
8:00 AM60.8 °F55.4 °F82 %30.15 in6.2 miWNW (300°)17.3 mphPartly Cloudy
8:00 AM61.0 °F55.0 °F74 %30.17 in12.0 miWNW (300°)17.9 mphPartly Cloudy
8:30 AM60.8 °F55.4 °F82 %30.15 in6.2 miWNW (300°)12.7 mphPartly Cloudy
9:00 AM60.8 °F55.4 °F82 %30.15 in6.2 miWNW (300°)13.8 mphScattered Clouds
9:30 AM60.8 °F55.4 °F82 %30.15 in6.2 miWNW (290°)12.7 mphPartly Cloudy
10:00 AM62.6 °F55.4 °F77 %30.15 in6.2 miWNW (290°)12.7 mphPartly Cloudy
10:30 AM62.6 °F55.4 °F77 %30.15 in6.2 miWNW (290°)13.8 mphPartly Cloudy
11:00 AM64.0 °F55.0 °F66 %30.18 in7.0 miWest (280°)13.4 mphScattered Clouds
11:00 AM64.4 °F55.4 °F73 %30.15 in6.2 miWest (280°)12.7 mphPartly Cloudy
11:30 AM64.4 °F55.4 °F73 %30.18 in6.2 miWest (270°)12.7 mphPartly Cloudy
12:00 PM62.6 °F55.4 °F77 %30.15 in6.2 miWest (270°)13.8 mphMostly Cloudy
12:30 PM62.6 °F57.2 °F82 %30.15 in6.2 miWest (270°)16.1 mphMostly Cloudy
1:00 PM62.6 °F57.2 °F82 %30.12 in6.2 miWest (270°)19.6 mphScattered Clouds
1:30 PM64.4 °F59.0 °F83 %30.12 in6.2 miWest (270°)16.1 mphScattered Clouds
2:00 PM64.0 °F58.0 °F77 %30.12 in9.0 miWest (270°)15.7 mphMostly Cloudy
2:00 PM64.4 °F59.0 °F83 %30.09 in6.2 miWest (260°)15.0 mphMostly Cloudy
2:30 PM64.4 °F59.0 °F83 %30.09 in6.2 miWest (270°)16.1 mphMostly Cloudy
3:00 PM64.4 °F59.0 °F83 %30.06 in6.2 miWest (270°)17.3 mphMostly Cloudy
3:30 PM64.4 °F59.0 °F83 %30.06 in6.2 miWest (270°)17.3 mphMostly Cloudy
4:00 PM64.4 °F59.0 °F83 %30.06 in6.2 miWest (260°)17.3 mphScattered Clouds
4:30 PM64.4 °F59.0 °F83 %30.06 in6.2 miWest (260°)16.1 mphScattered Clouds
5:00 PM64.0 °F59.0 °F79 %30.08 in11.0 miWest (270°)15.7 mphPartly Cloudy
5:00 PM64.4 °F59.0 °F83 %30.06 in6.2 miWest (260°)17.3 mphScattered Clouds
5:30 PM64.4 °F59.0 °F83 %30.06 in6.2 miWest (270°)17.3 mphScattered Clouds
6:00 PM62.6 °F59.0 °F88 %30.06 in6.2 miWest (270°)16.1 mphScattered Clouds
6:30 PM62.6 °F59.0 °F88 %30.06 in6.2 miWest (270°)15.0 mphScattered Clouds
7:00 PM62.6 °F59.0 °F88 %30.06 in6.2 miWest (280°)18.4 mphScattered Clouds
7:30 PM62.6 °F59.0 °F88 %30.06 in6.2 miWest (270°)18.4 mphScattered Clouds
8:00 PM62.6 °F60.8 °F94 %30.06 in6.2 miWest (270°)17.3 mphScattered Clouds
8:00 PM63.0 °F61.0 °F89 %30.07 in11.0 miWest (270°)17.9 mphMostly Cloudy
8:30 PM62.6 °F60.8 °F94 %30.06 in6.2 miWest (270°)19.6 mphScattered Clouds
9:00 PM62.6 °F60.8 °F94 %30.06 in6.2 miWest (270°)20.7 mphScattered Clouds
9:30 PM62.6 °F60.8 °F94 %30.04 in6.2 miWest (270°)19.6 mphScattered Clouds
10:00 PM62.6 °F60.8 °F94 %30.04 in6.2 miWest (260°)19.6 mphScattered Clouds
10:30 PM62.6 °F60.8 °F94 %30.04 in6.2 miWest (270°)18.4 mphScattered Clouds
11:00 PM63.0 °F60.0 °F88 %30.05 in9.0 miWest (270°)20.1 mphMostly Cloudy
11:00 PM62.6 °F60.8 °F94 %30.04 in6.2 miWest (270°)19.6 mphMostly Cloudy
11:30 PM62.6 °F60.8 °F94 %30.04 in6.2 miWest (260°)17.3 mphMostly Cloudy
Hourly data recorded from LPHR, located miles away from Horta, Portugal







STORIES FROM OUR PARTNERS